This is the latest recevied weather packets stored in our database for station/object N6GPM. If no packets are shown the sender has not sent any weather packets the latest 10 day(s).
| Time | Temp. | Humidity | Pressure | Rain* | Wind** | Luminosity | Snow |
|---|---|---|---|---|---|---|---|
| 1778123343 | 18.33° C | 65% | 1020.3 hPa | 0 mm | - | 0 W/m² | - |
| 1778123041 | 18.33° C | 65% | 1020.5 hPa | 0 mm | - | 0 W/m² | - |
| 1778122737 | 18.33° C | 64% | 1020 hPa | 0 mm | - | 0 W/m² | - |
| 1778122435 | 18.33° C | 63% | 1020 hPa | 0 mm | - | 0 W/m² | - |
| 1778122133 | 18.89° C | 63% | 1019.8 hPa | 0 mm | - | 0 W/m² | - |
| 1778121830 | 18.89° C | 62% | 1019.9 hPa | 0 mm | - | 0 W/m² | - |
| 1778121525 | 18.89° C | 62% | 1019.8 hPa | 0 mm | - | 1 W/m² | - |
| 1778121222 | 19.44° C | 62% | 1020 hPa | 0 mm | - | 3 W/m² | - |
| 1778120920 | 19.44° C | 61% | 1019.6 hPa | 0 mm | - | 7 W/m² | - |
| 1778120616 | 19.44° C | 61% | 1019.6 hPa | 0 mm | - | 10 W/m² | - |
| 1778120312 | 20° C | 60% | 1019.9 hPa | 0 mm | - | 14 W/m² | - |
| 1778120007 | 20° C | 60% | 1019.6 hPa | 0 mm | - | 18 W/m² | - |
| 1778119706 | 20.56° C | 59% | 1019.6 hPa | 0 mm | - | 21 W/m² | - |
| 1778119402 | 20.56° C | 59% | 1019.3 hPa | 0 mm | - | 25 W/m² | - |
| 1778119099 | 20.56° C | 58% | 1019.4 hPa | 0 mm | - | 30 W/m² | - |
| 1778118797 | 20.56° C | 58% | 1019.5 hPa | 0 mm | - | 34 W/m² | - |
| 1778118494 | 21.11° C | 56% | 1019.4 hPa | 0 mm | - | 38 W/m² | - |
| 1778118190 | 21.11° C | 56% | 1019.4 hPa | 0 mm | - | 34 W/m² | - |
| 1778117886 | 21.67° C | 55% | 1019.3 hPa | 0 mm | - | 62 W/m² | - |
| 1778117584 | 21.67° C | 55% | 1019.3 hPa | 0 mm | - | 72 W/m² | - |
| 1778117282 | 21.67° C | 54% | 1019.2 hPa | 0 mm | - | 42 W/m² | - |
| 1778116977 | 21.67° C | 53% | 1019.5 hPa | 0 mm | - | 42 W/m² | - |
| 1778116675 | 21.67° C | 54% | 1018.9 hPa | 0 mm | - | 117 W/m² | - |
| 1778116371 | 22.22° C | 53% | 1019.4 hPa | 0 mm | - | 138 W/m² | - |
| 1778116070 | 22.22° C | 53% | 1019.2 hPa | 0 mm | - | 147 W/m² | - |
* Rain latest hour (hover to see other rain measurements)
** Current wind speed in m/s (hover to see current wind gust speed)